Flag for U.S.A. Weather past 2 weeks in Norfolk, Virginia, U.S.A.

Now
57 °F

Clear.


Feels Like: 56 °F
Forecast: 50 / 70 °F
Wind: 7 mph from North

Location: Norfolk Naval Air Station

Current Time: Oct 25, 2014 at 8:49:02 AM

Latest Report: Oct 25, 2014 at 7:59 AM


Visibility: 10 mi

Pressure: 29.99 "Hg

Humidity: 64%

Dew point: 45 °F

Location of NorfolkLocation

Historic Weather in Norfolk — Graph

°F

Norfolk temperature yesterday

Maximum temperature yesterday: 70 °F (at 3:59 PM)
Minimum temperature yesterday: 56 °F (at 11:59 PM)
Average temperature yesterday: 62 °F

Past Weeks' High & Low Weather Summary

 TemperatureHumidityPressure
High83 °F (Oct 14, 1:59 PM)90% (Oct 11, 6:59 AM)30.28 "Hg (Oct 11, 6:59 AM)
Low48 °F (Oct 20, 2:59 AM)31% (Oct 20, 3:59 PM)29.70 "Hg (Oct 18, 1:59 PM)
Average66 °F66%29.97 "Hg
* Reported Oct 10 6:59 AM — Oct 25 6:59 AM, Norfolk, Weather by CustomWeather, © 2014

Note: Actual official high and low records may vary slightly from our data, if they occured in-between our weather recording intervals... More about our weather records

Advertising

Norfolk weather history for previous 24 hours

 ConditionsComfort  
Time TempWeatherWind HumidityBarometerVisibility
6:59 AM
Oct 25
55 °FPassing clouds.8 mph67%29.98 "Hg10 mi
5:59 AM56 °FClear.8 mph65%29.98 "Hg10 mi
4:59 AM54 °FClear.6 mph67%29.97 "Hg10 mi
3:59 AM56 °FPassing clouds.8 mph62%29.96 "Hg10 mi
2:59 AM57 °FClear.8 mph64%29.97 "Hg10 mi
1:59 AM55 °FClear.6 mph77%29.97 "Hg10 mi
12:59 AM54 °FClear.No wind77%29.96 "Hg10 mi
11:59 PM
Oct 24
56 °FPassing clouds.5 mph75%29.96 "Hg10 mi
10:59 PM58 °FPassing clouds.5 mph70%29.96 "Hg10 mi
9:59 PM59 °FPassing clouds.5 mph64%29.96 "Hg10 mi
8:59 PM62 °FPassing clouds.5 mph58%29.95 "Hg10 mi
7:59 PM63 °FPassing clouds.6 mph58%29.95 "Hg10 mi
6:59 PM65 °FScattered clouds.6 mph51%29.93 "Hg10 mi
5:59 PM66 °FBroken clouds.8 mph49%29.93 "Hg10 mi
4:59 PM69 °FScattered clouds.12 mph41%29.92 "Hg10 mi
3:59 PM70 °FScattered clouds.13 mph44%29.92 "Hg10 mi
2:59 PM69 °FPartly sunny.13 mph45%29.93 "Hg10 mi
1:59 PM68 °FPartly sunny.9 mph49%29.94 "Hg10 mi
12:59 PM67 °FPartly sunny.12 mph49%29.97 "Hg10 mi
11:59 AM65 °FPartly sunny.14 mph51%29.99 "Hg10 mi
10:59 AM65 °FPartly sunny.17 mph51%30.00 "Hg10 mi
9:59 AM61 °FPartly sunny.20 mph54%30.00 "Hg10 mi
8:59 AM60 °FPartly sunny.15 mph58%30.00 "Hg10 mi
Weather by CustomWeather, © 2014

See weather overviewHow to use our weather pages